EW1613 Weather Reports


Display with metric or nautical units.
time (UTC)temp
F
wind
direction
speed
MPH
gust
MPH
rain 1hr
in
rain 24hr
in
rain mn
in
humidity
%
barometer
mb
20260508124455 76 40 1.0 4.0 0.00 0.00 0.00 51 1015.5
20260508123946 76 180 2.0 4.0 0.00 0.00 0.00 51 1015.5
20260508123443 75 101 0.0 6.0 0.00 0.00 0.00 53 1015.6
20260508123000 75 190 3.0 6.0 0.00 0.00 0.00 52 1015.6
20260508122448 74 25 1.0 6.0 0.00 0.00 0.00 54 1015.8
20260508121944 73 78 2.0 6.0 0.00 0.00 0.00 54 1015.8
20260508121502 73 333 3.0 9.0 0.00 0.00 0.00 57 1015.8
20260508120951 73 355 1.0 6.0 0.00 0.00 0.00 57 1015.9
20260508120448 73 9 3.0 6.0 0.00 0.00 0.00 57 1015.9
20260508115938 73 176 2.0 6.0 0.00 0.00 0.00 57 1015.9
20260508115436 73 34 3.0 6.0 0.00 0.00 0.00 57 1016.0
20260508114940 73 77 1.0 6.0 0.00 0.00 0.00 57 1016.0
20260508114457 74 130 2.0 6.0 0.00 0.00 0.00 56 1015.9
20260508113951 74 251 2.0 6.0 0.00 0.00 0.00 56 1015.9
20260508113442 74 94 2.0 3.0 0.00 0.00 0.00 56 1015.9
20260508112939 73 139 1.0 3.0 0.00 0.00 0.00 57 1016.0
20260508112453 73 72 1.0 4.0 0.00 0.00 0.00 58 1016.1
20260508111944 72 73 1.0 4.0 0.00 0.00 0.00 58 1016.1
20260508111440 72 88 2.0 7.0 0.00 0.00 0.00 57 1016.2
20260508110956 72 98 1.0 7.0 0.00 0.00 0.00 59 1016.2
20260508110447 73 68 0.0 6.0 0.00 0.00 0.00 60 1016.3
20260508105943 72 76 0.0 7.0 0.00 0.00 0.00 60 1016.3
20260508105438 72 65 1.0 5.0 0.00 0.00 0.00 61 1016.3
20260508104946 72 33 2.0 5.0 0.00 0.00 0.00 60 1016.4
20260508104443 72 112 2.0 4.0 0.00 0.00 0.00 61 1016.3
20260508104001 72 71 0.0 7.0 0.00 0.00 0.00 62 1016.4
20260508103510 72 150 3.0 7.0 0.00 0.00 0.00 61 1016.5
20260508102946 72 181 1.0 3.0 0.00 0.00 0.00 62 1016.5
20260508102435 70 115 1.0 5.0 0.00 0.00 0.00 64 1016.6
20260508101951 70 80 2.0 6.0 0.00 0.00 0.00 65 1016.7
20260508101508 70 57 2.0 8.0 0.00 0.00 0.00 65 1016.6
20260508100938 70 89 2.0 8.0 0.00 0.00 0.00 65 1016.7
20260508100449 69 355 0.0 9.0 0.00 0.00 0.00 68 1016.7
20260508095946 69 25 5.0 9.0 0.00 0.00 0.00 67 1016.7
20260508095500 68 360 1.0 5.0 0.00 0.00 0.00 68 1016.8
20260508094950 68 347 2.0 6.0 0.00 0.00 0.00 67 1016.8
20260508094447 68 86 1.0 8.0 0.00 0.00 0.00 68 1016.9
20260508093939 69 69 3.0 8.0 0.00 0.00 0.00 68 1016.9
20260508093436 69 307 2.0 5.0 0.00 0.00 0.00 68 1016.9
20260508092952 69 63 2.0 5.0 0.00 0.00 0.00 66 1017.0
20260508092441 69 51 1.0 6.0 0.00 0.00 0.00 67 1016.9
20260508091937 68 309 1.0 5.0 0.00 0.00 0.00 71 1017.0
20260508091454 68 62 3.0 5.0 0.00 0.00 0.00 71 1017.0
20260508090945 68 82 1.0 5.0 0.00 0.00 0.00 69 1017.1
20260508090441 68 67 1.0 6.0 0.00 0.00 0.00 72 1017.1
20260508085952 67 65 2.0 7.0 0.00 0.00 0.00 73 1017.1
20260508085448 67 360 2.0 7.0 0.00 0.00 0.00 75 1017.1
20260508084935 67 134 1.0 5.0 0.00 0.00 0.00 75 1017.1
20260508084512 67 49 2.0 5.0 0.00 0.00 0.00 76 1017.0
20260508083946 65 103 2.0 8.0 0.00 0.00 0.00 78 1017.0
20260508083435 65 5 3.0 8.0 0.00 0.00 0.00 78 1017.1
20260508082951 65 28 1.0 7.0 0.00 0.00 0.00 79 1017.0
20260508082447 65 355 3.0 7.0 0.00 0.00 0.00 80 1017.0
20260508081937 64 43 2.0 8.0 0.00 0.00 0.00 79 1017.1
20260508081451 64 360 3.0 8.0 0.00 0.00 0.00 80 1017.1
20260508080944 64 15 3.0 7.0 0.00 0.00 0.00 81 1017.1
20260508080517 63 355 2.0 9.0 0.00 0.00 0.00 82 1017.1
20260508075952 63 30 3.0 9.0 0.00 0.00 0.00 82 1017.0
20260508075442 63 18 1.0 8.0 0.00 0.00 0.00 83 1017.1
20260508075000 62 84 2.0 8.0 0.00 0.00 0.00 82 1017.1
20260508074455 62 23 3.0 5.0 0.00 0.00 0.00 83 1017.1
20260508073945 62 31 3.0 6.0 0.00 0.00 0.00 83 1017.0
20260508073504 62 49 2.0 6.0 0.00 0.00 0.00 83 1017.0
20260508073000 62 5 2.0 7.0 0.00 0.00 0.00 83 1017.0
20260508072450 62 48 2.0 9.0 0.00 0.00 0.00 83 1017.0
20260508071941 62 351 2.0 9.0 0.00 0.00 0.00 83 1016.9
20260508071437 62 34 2.0 5.0 0.00 0.00 0.00 83 1017.0
20260508071014 62 50 2.0 6.0 0.00 0.00 0.00 84 1016.9
20260508070509 61 28 2.0 9.0 0.00 0.00 0.00 85 1016.9
20260508065937 61 22 2.0 9.0 0.00 0.00 0.00 84 1016.8
20260508065520 61 15 3.0 5.0 0.00 0.00 0.00 85 1016.8
20260508064947 61 54 1.0 4.0 0.00 0.00 0.00 85 1016.8
20260508064443 60 13 1.0 5.0 0.00 0.00 0.00 86 1016.8
20260508063957 60 19 2.0 5.0 0.00 0.00 0.00 85 1016.8
20260508063512 60 49 1.0 4.0 0.00 0.00 0.00 86 1016.8
20260508062942 60 56 1.0 6.0 0.00 0.00 0.00 86 1016.8
20260508062439 59 17 1.0 6.0 0.00 0.00 0.00 86 1016.8
20260508061946 59 35 0.0 4.0 0.00 0.00 0.00 87 1016.7
20260508061444 59 42 1.0 3.0 0.00 0.00 0.00 87 1016.6
20260508061001 58 61 1.0 4.0 0.00 0.00 0.00 86 1016.6
20260508060452 58 51 2.0 4.0 0.00 0.00 0.00 86 1016.6
20260508055950 58 74 2.0 3.0 0.00 0.00 0.00 86 1016.6
20260508055458 58 65 1.0 4.0 0.00 0.00 0.00 86 1016.5
20260508054955 58 62 2.0 4.0 0.00 0.00 0.00 86 1016.5
20260508054449 58 57 0.0 4.0 0.00 0.00 0.00 86 1016.4
20260508053939 58 68 1.0 5.0 0.00 0.00 0.00 85 1016.4
20260508053455 58 53 3.0 5.0 0.00 0.00 0.00 85 1016.3
20260508053009 58 52 3.0 4.0 0.00 0.00 0.00 85 1016.3
20260508052438 58 81 1.0 4.0 0.00 0.00 0.00 85 1016.3
20260508051953 58 79 2.0 4.0 0.00 0.00 0.00 85 1016.3
20260508051447 57 21 0.0 2.0 0.00 0.00 0.00 86 1016.2
20260508050936 57 21 0.0 2.0 0.00 0.00 0.00 85 1016.2
20260508050452 57 20 1.0 2.0 0.00 0.00 0.00 85 1016.1
20260508045947 57 20 1.0 4.0 0.00 0.00 0.00 85 1016.1
20260508045521 57 22 1.0 4.0 0.00 0.00 0.00 86 1016.1
20260508044952 56 24 1.0 3.0 0.00 0.00 0.00 86 1016.1
20260508044447 56 24 1.0 3.0 0.00 0.00 0.00 86 1016.1
20260508044018 56 24 0.0 3.0 0.00 0.00 0.00 86 1016.0
20260508043446 56 24 1.0 2.0 0.00 0.00 0.00 86 1016.0
20260508042944 56 22 0.0 3.0 0.00 0.00 0.00 86 1016.0
20260508042501 56 22 1.0 3.0 0.00 0.00 0.00 86 1015.9
20260508041950 56 21 1.0 2.0 0.00 0.00 0.00 86 1015.9
20260508041439 56 21 1.0 4.0 0.00 0.00 0.00 86 1015.9
20260508040934 56 20 1.0 4.0 0.00 0.00 0.00 86 1015.9
20260508040451 56 26 0.0 2.0 0.00 0.00 0.00 87 1015.8
20260508035941 56 27 1.0 4.0 0.00 0.00 0.00 87 1015.7
20260508035459 56 26 1.0 4.0 0.00 0.00 0.00 87 1015.7
20260508035017 56 11 1.0 3.0 0.00 0.00 0.00 87 1015.8
20260508034444 56 10 0.0 4.0 0.00 0.00 0.00 88 1015.9
20260508033942 56 5 2.0 4.0 0.00 0.00 0.00 88 1015.9
20260508033452 56 12 0.0 4.0 0.00 0.00 0.00 88 1015.9
20260508032949 55 11 0.0 4.0 0.00 0.00 0.00 89 1015.9
20260508032438 55 341 1.0 3.0 0.00 0.00 0.00 89 1015.9
20260508031953 55 332 0.0 3.0 0.00 0.00 0.00 89 1015.9
20260508031452 55 332 1.0 2.0 0.00 0.00 0.00 89 1015.9
20260508030941 55 332 0.0 2.0 0.00 0.00 0.00 89 1015.9
20260508030458 55 332 1.0 2.0 0.00 0.00 0.00 89 1015.9
20260508025948 55 332 1.0 2.0 0.00 0.00 0.00 89 1015.9
20260508025506 55 332 1.0 2.0 0.00 0.00 0.00 89 1015.9
20260508024935 55 332 1.0 2.0 0.00 0.00 0.00 89 1016.0
20260508024514 55 332 0.0 2.0 0.00 0.00 0.00 89 1016.0
20260508023942 55 332 0.0 3.0 0.00 0.00 0.00 90 1016.0
20260508023459 55 332 0.0 3.0 0.00 0.00 0.00 90 1016.0
20260508022949 55 331 1.0 3.0 0.00 0.00 0.00 90 1016.0
20260508022444 55 329 1.0 3.0 0.00 0.00 0.00 90 1016.1
20260508021943 55 328 0.0 3.0 0.00 0.00 0.00 89 1016.0
20260508021453 55 328 0.0 3.0 0.00 0.00 0.00 90 1016.1
20260508020949 56 328 1.0 3.0 0.00 0.00 0.00 89 1016.1
20260508020440 56 328 0.0 3.0 0.00 0.00 0.00 89 1016.1
20260508015938 56 328 1.0 3.0 0.00 0.00 0.00 89 1016.2
20260508015445 56 326 0.0 2.0 0.00 0.00 0.00 89 1016.1
20260508015001 56 326 1.0 2.0 0.00 0.00 0.00 89 1016.2
20260508014437 56 326 0.0 1.0 0.00 0.00 0.00 89 1016.2
20260508013952 57 326 0.0 3.0 0.00 0.00 0.00 89 1016.1
20260508013509 57 326 1.0 3.0 0.00 0.00 0.00 88 1016.0
20260508012940 57 326 0.0 3.0 0.00 0.00 0.00 88 1016.1
20260508012436 57 326 1.0 3.0 0.00 0.00 0.00 88 1016.1
20260508012011 57 31 1.0 2.0 0.00 0.00 0.00 89 1016.1
20260508011458 58 32 0.0 2.0 0.00 0.00 0.00 88 1016.1
20260508011017 58 32 0.0 3.0 0.00 0.00 0.00 88 1016.0
20260508010444 58 49 1.0 3.0 0.00 0.00 0.00 88 1016.0
20260508005937 58 49 1.0 4.0 0.00 0.00 0.00 88 1016.0
20260508005452 58 45 1.0 4.0 0.00 0.00 0.00 88 1016.0
20260508005010 58 66 0.0 2.0 0.00 0.00 0.00 88 1016.1
20260508004445 58 71 0.0 2.0 0.00 0.00 0.00 88 1016.0
20260508003953 58 71 0.0 2.0 0.00 0.00 0.00 88 1016.0
20260508003450 58 71 0.0 2.0 0.00 0.00 0.00 88 1016.0
20260508002939 58 75 0.0 2.0 0.00 0.00 0.00 88 1016.1
20260508002435 58 75 0.0 3.0 0.00 0.00 0.00 88 1016.0
20260508001945 58 76 1.0 3.0 0.00 0.00 0.00 88 1016.0
20260508001442 58 77 2.0 4.0 0.00 0.00 0.00 88 1016.0
20260508001000 58 63 1.0 4.0 0.00 0.00 0.00 88 1016.1
20260508000454 58 70 2.0 5.0 0.00 0.00 0.00 88 1016.0
20260507235945 58 63 2.0 5.0 0.00 0.00 0.00 88 1016.0
20260507235434 58 66 1.0 5.0 0.00 0.00 0.00 88 1016.0
20260507234958 58 40 2.0 5.0 0.00 0.00 0.00 88 1016.0
20260507234446 58 65 2.0 5.0 0.00 0.00 0.00 88 1016.0
20260507233937 58 62 2.0 5.0 0.00 0.00 0.00 88 1016.1
20260507233452 58 61 1.0 4.0 0.00 0.00 0.00 88 1016.1
20260507232948 58 31 1.0 2.0 0.00 0.00 0.00 88 1016.2
20260507232440 58 28 0.0 1.0 0.00 0.00 0.00 88 1016.3
20260507231937 58 28 0.0 1.0 0.00 0.00 0.00 87 1016.3
20260507231514 58 28 0.0 3.0 0.00 0.00 0.00 87 1016.2
20260507231009 58 28 0.0 3.0 0.00 0.00 0.00 87 1016.2
20260507230437 58 29 1.0 4.0 0.00 0.00 0.00 87 1016.0
20260507230010 58 28 1.0 4.0 0.00 0.00 0.00 87 1016.0
20260507225439 58 23 1.0 3.0 0.00 0.00 0.00 86 1016.0
20260507224935 59 52 1.0 2.0 0.00 0.00 0.00 86 1016.1
20260507224451 59 52 0.0 2.0 0.00 0.00 0.00 86 1016.2
20260507223940 59 53 0.0 2.0 0.00 0.00 0.00 85 1016.2
20260507223456 59 53 0.0 3.0 0.00 0.00 0.00 85 1016.2
20260507222950 59 54 1.0 3.0 0.00 0.00 0.00 85 1016.1
20260507222445 59 50 0.0 4.0 0.00 0.00 0.00 85 1016.1
20260507221953 59 50 1.0 4.0 0.00 0.00 0.00 84 1016.0
20260507221450 60 57 1.0 4.0 0.00 0.00 0.00 84 1015.9
20260507220939 60 49 0.0 3.0 0.00 0.00 0.00 83 1015.9
20260507220436 60 51 1.0 3.0 0.00 0.00 0.00 83 1015.9
20260507215943 60 48 1.0 3.0 0.00 0.00 0.00 83 1015.9
20260507215440 60 65 1.0 4.0 0.00 0.00 0.00 82 1015.9
20260507214958 60 53 2.0 4.0 0.00 0.00 0.00 82 1015.8
20260507214449 60 49 2.0 4.0 0.00 0.00 0.00 82 1015.9
20260507213946 60 71 1.0 4.0 0.00 0.00 0.00 82 1015.8
20260507213435 61 59 1.0 5.0 0.00 0.00 0.00 82 1015.8
20260507212952 61 85 2.0 5.0 0.00 0.00 0.00 82 1015.7
20260507212441 61 58 2.0 5.0 0.00 0.00 0.00 82 1015.7
20260507211936 61 60 2.0 5.0 0.00 0.00 0.00 82 1015.7
20260507211451 61 55 2.0 6.0 0.00 0.00 0.00 82 1015.7
20260507210959 61 57 3.0 6.0 0.00 0.00 0.00 82 1015.6
20260507210434 61 94 1.0 6.0 0.00 0.00 0.00 82 1015.7
20260507205953 61 61 3.0 7.0 0.00 0.00 0.00 81 1015.7
20260507205442 61 77 2.0 5.0 0.00 0.00 0.00 81 1015.6
20260507204937 62 57 2.0 4.0 0.00 0.00 0.00 81 1015.6
20260507204453 62 69 2.0 4.0 0.00 0.00 0.00 81 1015.6
20260507203948 62 71 1.0 4.0 0.00 0.00 0.00 82 1015.6
20260507203504 62 67 2.0 6.0 0.00 0.00 0.00 82 1015.6
20260507202953 62 70 3.0 5.0 0.00 0.00 0.00 82 1015.5
20260507202451 62 50 2.0 7.0 0.00 0.00 0.00 82 1015.4
20260507201940 63 69 2.0 7.0 0.00 0.00 0.00 81 1015.3
20260507201435 63 82 2.0 4.0 0.00 0.00 0.00 81 1015.3
20260507200950 63 76 1.0 4.0 0.00 0.00 0.00 81 1015.3
20260507200441 63 51 1.0 4.0 0.00 0.00 0.00 80 1015.2
20260507195940 64 49 2.0 4.0 0.00 0.00 0.00 80 1015.1
20260507195436 64 43 0.0 4.0 0.00 0.00 0.00 79 1014.9
20260507194954 64 44 1.0 3.0 0.00 0.00 0.00 79 1014.9
20260507194457 65 63 2.0 3.0 0.00 0.00 0.00 78 1014.7
20260507193953 65 111 0.0 3.0 0.00 0.00 0.00 78 1014.6
20260507193449 65 110 1.0 6.0 0.00 0.00 0.00 78 1014.6
20260507193005 65 107 1.0 6.0 0.00 0.00 0.00 79 1014.5
20260507192434 65 105 2.0 4.0 0.00 0.00 0.00 79 1014.5
20260507192011 65 83 2.0 4.0 0.00 0.00 0.00 78 1014.4
20260507191445 65 96 2.0 4.0 0.00 0.00 0.00 78 1014.3
20260507190938 65 74 1.0 4.0 0.00 0.00 0.00 78 1014.1
20260507190514 65 85 1.0 4.0 0.00 0.00 0.00 77 1014.1
20260507185941 65 85 0.0 6.0 0.00 0.00 0.00 76 1014.0
20260507185438 65 82 3.0 6.0 0.00 0.00 0.00 76 1013.9
20260507184949 66 87 2.0 5.0 0.00 0.00 0.00 76 1013.9
20260507184446 66 83 1.0 6.0 0.00 0.00 0.00 75 1013.9
20260507183959 66 98 1.0 7.0 0.00 0.00 0.00 75 1013.8
20260507183451 66 87 2.0 8.0 0.00 0.00 0.00 74 1013.7
20260507182949 66 71 3.0 8.0 0.00 0.00 0.00 74 1013.7
20260507182459 66 82 3.0 9.0 0.00 0.00 0.00 73 1013.7
20260507181953 67 63 3.0 9.0 0.00 0.00 0.00 73 1013.7
20260507181444 67 79 2.0 8.0 0.00 0.00 0.00 73 1013.6
20260507181001 67 69 3.0 8.0 0.00 0.00 0.00 73 1013.5
20260507180451 67 55 2.0 7.0 0.00 0.00 0.00 72 1013.4
20260507175948 67 86 2.0 8.0 0.00 0.00 0.00 71 1013.3
20260507175459 68 72 3.0 8.0 0.00 0.00 0.00 71 1013.3
20260507174935 68 75 5.0 9.0 0.00 0.00 0.00 70 1013.1
20260507174450 68 83 4.0 10.0 0.00 0.00 0.00 69 1013.0
20260507173940 69 82 4.0 10.0 0.00 0.00 0.00 68 1013.0
20260507173458 69 52 3.0 8.0 0.00 0.00 0.00 67 1012.9
20260507172953 69 59 3.0 9.0 0.00 0.00 0.00 66 1012.9
20260507172443 70 66 3.0 10.0 0.00 0.00 0.00 65 1012.8
20260507171939 70 69 5.0 11.0 0.00 0.00 0.00 63 1012.7
20260507171448 70 49 5.0 11.0 0.00 0.00 0.00 58 1012.7
20260507170944 71 53 6.0 10.0 0.00 0.00 0.00 57 1012.7
20260507170458 72 16 4.0 10.0 0.00 0.00 0.00 57 1012.6
20260507165947 73 21 2.0 10.0 0.00 0.00 0.00 54 1012.6
20260507165437 74 336 2.0 6.0 0.00 0.00 0.00 50 1012.6
20260507164953 74 255 0.0 1.0 0.00 0.00 0.00 47 1012.5
20260507164509 75 255 0.0 3.0 0.00 0.00 0.00 47 1012.6
20260507163944 75 255 1.0 3.0 0.00 0.00 0.00 48 1012.6
20260507163434 74 269 1.0 3.0 0.00 0.00 0.00 49 1012.5
20260507162948 74 259 1.0 3.0 0.00 0.00 0.00 49 1012.6
20260507162438 74 324 0.0 4.0 0.00 0.00 0.00 49 1012.6
20260507161935 73 318 1.0 3.0 0.00 0.00 0.00 50 1012.6
20260507161513 73 329 1.0 2.0 0.00 0.00 0.00 52 1012.5
20260507160941 72 50 0.0 2.0 0.00 0.00 0.00 52 1012.6
20260507160436 72 51 1.0 4.0 0.00 0.00 0.00 53 1012.5
20260507155941 73 24 1.0 5.0 0.00 0.00 0.00 52 1012.6
20260507155436 73 15 1.0 5.0 0.00 0.00 0.00 52 1012.6
20260507155011 73 315 1.0 4.0 0.00 0.00 0.00 52 1012.6
20260507154438 73 325 1.0 6.0 0.00 0.00 0.00 51 1012.6
20260507153935 73 302 3.0 6.0 0.00 0.00 0.00 52 1012.5
20260507153452 74 312 1.0 5.0 0.00 0.00 0.00 52 1012.5
20260507152941 74 323 1.0 6.0 0.00 0.00 0.00 53 1012.4
20260507152439 73 322 2.0 6.0 0.00 0.00 0.00 54 1012.4
20260507151950 73 101 0.0 1.0 0.00 0.00 0.00 54 1012.4
20260507151446 73 109 0.0 5.0 0.00 0.00 0.00 55 1012.3
20260507151005 72 109 1.0 5.0 0.00 0.00 0.00 56 1012.3
20260507150447 72 316 0.0 5.0 0.00 0.00 0.00 56 1012.3
20260507145954 72 306 1.0 6.0 0.00 0.00 0.00 56 1012.3
20260507145450 72 29 2.0 9.0 0.00 0.00 0.00 57 1012.4
20260507144941 72 55 4.0 9.0 0.00 0.00 0.00 56 1012.4
20260507144439 73 343 2.0 6.0 0.00 0.00 0.00 55 1012.5
20260507143944 73 317 3.0 9.0 0.00 0.00 0.00 53 1012.4
20260507143442 73 252 3.0 11.0 0.00 0.00 0.00 53 1012.4
20260507142934 73 321 7.0 11.0 0.00 0.00 0.00 53 1012.5
20260507142451 74 295 3.0 10.0 0.00 0.00 0.00 53 1012.5
20260507141948 75 271 4.0 14.0 0.00 0.00 0.00 51 1012.4
20260507141439 75 226 7.0 14.0 0.00 0.00 0.00 47 1012.4
20260507140957 76 254 5.0 9.0 0.00 0.00 0.00 45 1012.4
20260507140451 75 321 2.0 10.0 0.00 0.00 0.00 44 1012.4
20260507135939 75 239 7.0 10.0 0.00 0.00 0.00 44 1012.5
20260507135436 75 249 1.0 12.0 0.00 0.04 0.00 43 1012.4
20260507134947 75 250 5.0 15.0 0.00 0.04 0.00 45 1012.5
20260507134504 75 235 11.0 15.0 0.00 0.04 0.00 45 1012.6
20260507133957 75 241 3.0 10.0 0.00 0.04 0.00 48 1012.6
20260507133512 75 254 5.0 14.0 0.00 0.04 0.00 47 1012.5
20260507132942 75 223 8.0 14.0 0.00 0.04 0.00 48 1012.5
20260507132438 75 238 3.0 7.0 0.00 0.04 0.00 48 1012.6
20260507132011 75 265 3.0 11.0 0.00 0.04 0.00 48 1012.6
20260507131508 74 230 5.0 13.0 0.00 0.04 0.00 48 1012.6
20260507130935 74 240 5.0 15.0 0.00 0.04 0.00 48 1012.6
20260507130452 74 200 6.0 15.0 0.00 0.04 0.00 49 1012.6
20260507130007 74 220 8.0 14.0 0.00 0.04 0.00 46 1012.7
20260507125435 74 210 8.0 16.0 0.00 0.16 0.00 50 1012.6
20260507125011 74 201 5.0 16.0 0.00 0.16 0.00 50 1012.6